SAA038 FAOR-FBSK

Flight info

Callsign SAA038
Flight time 0h 36m
Altitude 26000
Route VASUR3B VASUR UQ24 DUSLI DUSLI1D
Aircraft A20N/M-SDE2E3FGHIRWXY/LB1

Departure

Time 2026-05-07 20:35
Airport O.R. Tambo International Airport (FAOR)

Arrival

Time 2026-05-07 21:11
Airport Sir Seretse Khama International Airport (FBSK)
Time Latitude Longitude Altitude Speed Heading
2026-05-07 20:08 -26.13674 28.23024 5546 ft 0 kts
2026-05-07 20:24 -26.13675 28.23024 5546 ft 2 kts
2026-05-07 20:24 -26.13699 28.23019 5551 ft 4 kts 17°
2026-05-07 20:24 -26.13724 28.23007 5550 ft 4 kts 44°
2026-05-07 20:25 -26.13734 28.22987 5549 ft 1 kts 96°
2026-05-07 20:25 -26.13733 28.22982 5548 ft 0 kts 96°
2026-05-07 20:29 -26.13733 28.22983 5548 ft 0 kts 96°
2026-05-07 20:29 -26.13736 28.23012 5548 ft 8 kts 96°
2026-05-07 20:29 -26.13744 28.23089 5548 ft 11 kts 96°
2026-05-07 20:29 -26.13753 28.23180 5546 ft 13 kts 96°
2026-05-07 20:30 -26.13762 28.23284 5546 ft 14 kts 91°
2026-05-07 20:30 -26.13774 28.23392 5551 ft 15 kts 107°
2026-05-07 20:30 -26.13790 28.23459 5551 ft 11 kts 94°
2026-05-07 20:30 -26.13749 28.23510 5552 ft 10 kts 16°
2026-05-07 20:31 -26.13662 28.23537 5551 ft 15 kts 14°
2026-05-07 20:31 -26.13546 28.23573 5550 ft 19 kts 16°
2026-05-07 20:31 -26.13410 28.23614 5549 ft 22 kts 16°
2026-05-07 20:31 -26.13256 28.23662 5544 ft 23 kts 15°
2026-05-07 20:32 -26.13101 28.23710 5546 ft 22 kts 15°
2026-05-07 20:32 -26.12947 28.23758 5546 ft 24 kts 14°
2026-05-07 20:32 -26.12783 28.23810 5543 ft 24 kts 15°
2026-05-07 20:32 -26.12618 28.23860 5542 ft 25 kts 15°
2026-05-07 20:33 -26.12439 28.23917 5537 ft 28 kts 16°
2026-05-07 20:33 -26.12247 28.23976 5534 ft 30 kts 14°
2026-05-07 20:33 -26.12057 28.24033 5532 ft 24 kts 17°
2026-05-07 20:33 -26.11893 28.24086 5527 ft 24 kts 15°
2026-05-07 20:34 -26.11846 28.24175 5527 ft 13 kts 107°
2026-05-07 20:34 -26.11873 28.24269 5531 ft 13 kts 131°
2026-05-07 20:34 -26.11965 28.24264 5527 ft 18 kts 196°
2026-05-07 20:34 -26.12311 28.24156 5532 ft 85 kts 195°
2026-05-07 20:35 -26.13061 28.23924 5542 ft 138 kts 196°
2026-05-07 20:35 -26.14086 28.23604 5842 ft 156 kts 197°
2026-05-07 20:35 -26.15105 28.23285 6686 ft 146 kts 197°
2026-05-07 20:35 -26.16055 28.22992 7370 ft 141 kts 198°
2026-05-07 20:36 -26.17056 28.22678 7712 ft 159 kts 198°
2026-05-07 20:36 -26.18186 28.22321 8029 ft 180 kts 198°
2026-05-07 20:36 -26.19463 28.21919 8426 ft 201 kts 198°
2026-05-07 20:36 -26.20904 28.21467 8825 ft 228 kts 198°
2026-05-07 20:37 -26.22512 28.20965 9364 ft 251 kts 198°
2026-05-07 20:37 -26.24266 28.20418 9981 ft 270 kts 198°
2026-05-07 20:37 -26.26110 28.19845 10706 ft 284 kts 198°
2026-05-07 20:37 -26.28096 28.19225 11073 ft 309 kts 198°
2026-05-07 20:38 -26.30192 28.18569 11502 ft 328 kts 199°
2026-05-07 20:38 -26.32315 28.17628 12305 ft 328 kts 215°
2026-05-07 20:38 -26.33973 28.15912 13162 ft 327 kts 237°
2026-05-07 20:38 -26.34926 28.13640 14063 ft 325 kts 257°
2026-05-07 20:39 -26.35175 28.11164 14818 ft 328 kts 269°
2026-05-07 20:39 -26.35115 28.08611 15603 ft 332 kts 272°
2026-05-07 20:39 -26.34988 28.06027 16390 ft 335 kts 272°
2026-05-07 20:39 -26.34810 28.03429 17134 ft 339 kts 280°
2026-05-07 20:40 -26.33961 28.00961 17854 ft 347 kts 299°
2026-05-07 20:40 -26.32353 27.98921 18551 ft 358 kts 316°
2026-05-07 20:40 -26.30272 27.97334 19195 ft 365 kts 323°
2026-05-07 20:40 -26.28074 27.95893 19862 ft 368 kts 324°
2026-05-07 20:41 -26.25836 27.94478 20506 ft 371 kts 325°
2026-05-07 20:41 -26.23552 27.93111 21152 ft 377 kts 328°
2026-05-07 20:41 -26.21085 27.92025 21795 ft 387 kts 337°
2026-05-07 20:41 -26.18436 27.91477 22418 ft 400 kts 349°
2026-05-07 20:42 -26.15594 27.91389 23041 ft 407 kts 352°
2026-05-07 20:42 -26.12754 27.91363 23645 ft 411 kts 352°
2026-05-07 20:42 -26.09879 27.91356 24177 ft 414 kts 352°
2026-05-07 20:42 -26.06995 27.91358 24733 ft 416 kts 352°
2026-05-07 20:43 -26.04088 27.91361 25271 ft 419 kts 352°
2026-05-07 20:43 -26.01231 27.91364 25760 ft 422 kts 352°
2026-05-07 20:43 -25.98274 27.91366 26100 ft 424 kts 352°
2026-05-07 20:43 -25.95323 27.91367 26196 ft 424 kts 352°
2026-05-07 20:44 -25.92376 27.91325 26213 ft 422 kts 349°
2026-05-07 20:44 -25.89754 27.91189 26207 ft 420 kts 348°
2026-05-07 20:44 -25.86833 27.91003 26214 ft 420 kts 348°
2026-05-07 20:44 -25.84058 27.90828 26211 ft 420 kts 348°
2026-05-07 20:45 -25.81047 27.90651 26205 ft 421 kts 349°
2026-05-07 20:45 -25.78124 27.90489 26203 ft 420 kts 349°
2026-05-07 20:45 -25.75203 27.90332 26202 ft 420 kts 349°
2026-05-07 20:45 -25.72284 27.90178 26205 ft 420 kts 349°
2026-05-07 20:46 -25.69360 27.90025 26204 ft 421 kts 349°
2026-05-07 20:46 -25.66440 27.89871 26196 ft 420 kts 349°
2026-05-07 20:46 -25.63523 27.89718 26195 ft 420 kts 349°
2026-05-07 20:46 -25.60669 27.89290 26192 ft 408 kts 337°
2026-05-07 20:47 -25.58055 27.88197 26192 ft 396 kts 325°
2026-05-07 20:47 -25.55796 27.86538 26192 ft 386 kts 314°
2026-05-07 20:47 -25.53948 27.84420 26192 ft 379 kts 303°
2026-05-07 20:47 -25.52553 27.81973 26190 ft 375 kts 295°
2026-05-07 20:48 -25.51288 27.79443 26187 ft 375 kts 296°
2026-05-07 20:48 -25.50034 27.76958 26187 ft 375 kts 296°
2026-05-07 20:48 -25.48756 27.74438 26184 ft 375 kts 296°
2026-05-07 20:48 -25.47461 27.71885 26184 ft 375 kts 296°
2026-05-07 20:49 -25.46179 27.69362 26185 ft 376 kts 296°
2026-05-07 20:49 -25.44901 27.66847 26182 ft 376 kts 296°
2026-05-07 20:49 -25.43619 27.64324 26183 ft 376 kts 296°
2026-05-07 20:49 -25.42337 27.61804 26178 ft 376 kts 296°
2026-05-07 20:50 -25.41057 27.59288 26178 ft 376 kts 296°
2026-05-07 20:50 -25.39775 27.56770 26178 ft 376 kts 296°
2026-05-07 20:50 -25.38509 27.54284 26177 ft 376 kts 296°
2026-05-07 20:50 -25.37225 27.51764 26179 ft 376 kts 296°
2026-05-07 20:51 -25.35941 27.49246 26175 ft 376 kts 296°
2026-05-07 20:51 -25.34657 27.46731 26175 ft 376 kts 296°
2026-05-07 20:51 -25.33373 27.44214 26177 ft 376 kts 296°
2026-05-07 20:51 -25.32086 27.41695 26174 ft 376 kts 296°
2026-05-07 20:52 -25.30799 27.39176 26174 ft 376 kts 296°
2026-05-07 20:52 -25.29514 27.36662 26173 ft 376 kts 296°
2026-05-07 20:52 -25.28224 27.34141 26171 ft 376 kts 296°
2026-05-07 20:52 -25.26935 27.31622 26172 ft 376 kts 296°
2026-05-07 20:53 -25.25647 27.29107 26174 ft 376 kts 296°
2026-05-07 20:53 -25.24356 27.26589 26170 ft 377 kts 296°
2026-05-07 20:53 -25.23066 27.24072 26167 ft 377 kts 296°
2026-05-07 20:53 -25.21776 27.21556 26169 ft 377 kts 296°
2026-05-07 20:54 -25.20508 27.19029 26171 ft 376 kts 294°
2026-05-07 20:54 -25.19390 27.16427 26169 ft 375 kts 292°
2026-05-07 20:54 -25.18283 27.13821 26164 ft 374 kts 292°
2026-05-07 20:54 -25.17177 27.11224 26166 ft 374 kts 292°
2026-05-07 20:55 -25.16065 27.08621 26164 ft 375 kts 292°
2026-05-07 20:55 -25.14968 27.06056 26163 ft 374 kts 292°
2026-05-07 20:55 -25.13855 27.03455 26167 ft 375 kts 292°
2026-05-07 20:55 -25.12740 27.00852 26162 ft 375 kts 292°
2026-05-07 20:56 -25.11625 26.98249 26161 ft 375 kts 292°
2026-05-07 20:56 -25.10509 26.95646 26162 ft 375 kts 292°
2026-05-07 20:56 -25.09391 26.93041 26161 ft 376 kts 292°
2026-05-07 20:56 -25.08275 26.90440 26156 ft 376 kts 292°
2026-05-07 20:57 -25.07153 26.87830 26148 ft 376 kts 292°
2026-05-07 20:57 -25.06033 26.85222 25900 ft 377 kts 292°
2026-05-07 20:57 -25.04906 26.82600 25213 ft 382 kts 292°
2026-05-07 20:57 -25.03769 26.79956 24638 ft 380 kts 293°
2026-05-07 20:58 -25.02638 26.77331 24048 ft 377 kts 293°
2026-05-07 20:58 -25.01516 26.74727 23422 ft 374 kts 293°
2026-05-07 20:58 -25.00407 26.72155 22817 ft 369 kts 293°
2026-05-07 20:58 -24.99328 26.69654 22244 ft 364 kts 293°
2026-05-07 20:59 -24.98204 26.67170 21661 ft 361 kts 297°
2026-05-07 20:59 -24.96857 26.64845 21079 ft 360 kts 303°
2026-05-07 20:59 -24.95283 26.62707 20486 ft 359 kts 309°
2026-05-07 20:59 -24.93542 26.60731 19868 ft 360 kts 311°
2026-05-07 21:00 -24.91800 26.58768 19294 ft 358 kts 311°
2026-05-07 21:00 -24.90066 26.56802 18724 ft 357 kts 311°
2026-05-07 21:00 -24.88335 26.54838 18093 ft 356 kts 311°
2026-05-07 21:00 -24.86596 26.52867 17494 ft 353 kts 311°
2026-05-07 21:01 -24.84883 26.50928 16903 ft 351 kts 311°
2026-05-07 21:01 -24.83186 26.49007 16314 ft 350 kts 311°
2026-05-07 21:01 -24.81492 26.47092 15726 ft 348 kts 311°
2026-05-07 21:01 -24.79806 26.45185 15141 ft 347 kts 311°
2026-05-07 21:02 -24.78122 26.43282 14551 ft 346 kts 311°
2026-05-07 21:02 -24.76443 26.41385 13943 ft 345 kts 311°
2026-05-07 21:02 -24.74774 26.39502 13345 ft 343 kts 311°
2026-05-07 21:02 -24.73116 26.37629 12767 ft 340 kts 311°
2026-05-07 21:03 -24.71467 26.35769 12186 ft 338 kts 311°
2026-05-07 21:03 -24.69831 26.33924 11611 ft 337 kts 311°
2026-05-07 21:03 -24.68199 26.32084 11033 ft 335 kts 311°
2026-05-07 21:03 -24.66574 26.30252 10518 ft 332 kts 311°
2026-05-07 21:04 -24.64993 26.28474 10367 ft 318 kts 311°
2026-05-07 21:04 -24.63483 26.26779 10242 ft 304 kts 311°
2026-05-07 21:04 -24.62039 26.25157 10117 ft 291 kts 311°
2026-05-07 21:04 -24.60640 26.23582 9741 ft 287 kts 311°
2026-05-07 21:05 -24.59248 26.22013 9255 ft 287 kts 311°
2026-05-07 21:05 -24.57857 26.20444 8794 ft 286 kts 311°
2026-05-07 21:05 -24.56468 26.18881 8402 ft 284 kts 312°
2026-05-07 21:05 -24.55103 26.17386 8277 ft 272 kts 316°
2026-05-07 21:06 -24.53603 26.16175 8062 ft 266 kts 327°
2026-05-07 21:06 -24.51967 26.15209 7675 ft 267 kts 330°
2026-05-07 21:06 -24.50332 26.14254 7302 ft 266 kts 330°
2026-05-07 21:06 -24.48703 26.13286 6929 ft 266 kts 327°
2026-05-07 21:07 -24.47395 26.11903 6541 ft 262 kts 298°
2026-05-07 21:07 -24.46857 26.10035 6158 ft 256 kts 269°
2026-05-07 21:07 -24.47226 26.08203 6004 ft 241 kts 240°
2026-05-07 21:07 -24.48043 26.06653 5914 ft 228 kts 237°
2026-05-07 21:08 -24.48820 26.05235 5756 ft 206 kts 237°
2026-05-07 21:08 -24.49513 26.03936 5545 ft 189 kts 238°
2026-05-07 21:08 -24.50129 26.02743 5262 ft 175 kts 239°
2026-05-07 21:08 -24.50732 26.01553 5122 ft 187 kts 239°
2026-05-07 21:09 -24.51352 26.00313 4946 ft 179 kts 239°
2026-05-07 21:09 -24.51912 25.99178 4700 ft 163 kts 239°
2026-05-07 21:09 -24.52436 25.98117 4394 ft 155 kts 240°
2026-05-07 21:09 -24.52948 25.97084 3999 ft 153 kts 241°
2026-05-07 21:10 -24.53447 25.96086 3724 ft 146 kts 241°
2026-05-07 21:10 -24.53921 25.95117 3508 ft 145 kts 244°
2026-05-07 21:10 -24.54393 25.94132 3349 ft 146 kts 242°
2026-05-07 21:10 -24.54863 25.93182 3292 ft 129 kts 241°
2026-05-07 21:11 -24.55216 25.92468 3293 ft 84 kts 241°
2026-05-07 21:11 -24.55445 25.92015 3297 ft 58 kts 241°
2026-05-07 21:11 -24.55727 25.91449 3296 ft 17 kts 238°
2026-05-07 21:12 -24.55817 25.91454 3296 ft 15 kts 152°
2026-05-07 21:12 -24.55885 25.91534 3297 ft 16 kts 83°
2026-05-07 21:12 -24.55830 25.91650 3296 ft 18 kts 60°
2026-05-07 21:12 -24.55766 25.91782 3296 ft 21 kts 62°
2026-05-07 21:13 -24.55693 25.91927 3295 ft 22 kts 61°
2026-05-07 21:13 -24.55638 25.92061 3295 ft 13 kts 94°
2026-05-07 21:13 -24.55680 25.92126 3294 ft 8 kts 97°
2026-05-07 21:13 -24.55663 25.92166 3294 ft 7 kts 64°
2026-05-07 21:14 -24.55634 25.92226 3294 ft 11 kts 61°
2026-05-07 21:14 -24.55625 25.92272 3294 ft 5 kts 124°
2026-05-07 21:14 -24.55660 25.92306 3294 ft 8 kts 150°
2026-05-07 21:14 -24.55689 25.92324 3294 ft 0 kts 151°